Location: Observatoire de Paris
(48.8363°N, 2.3365°E)
Time: 03:59:28
(UTC+01:00)

METEOR M2 - Pass Details

Date: 29 September 2021
Orbit: 819 x 826 km, 98.5° (Epoch: 19 October)

Event Time Altitude Azimuth Distance (km) Brightness Sun altitude
Rises 18:52:03 0° 150° (SSE) 3,339 ? -3.9°
Reaches altitude 10° 18:54:25 10° 147° (SSE) 2,411 ? -4.3°
Maximum altitude 18:59:38 57° 70° (ENE) 962 ? -5.1°
Drops below altitude 10° 19:04:54 10° 353° (N) 2,431 ? -6.0°
Sets 19:07:17 0° 349° (N) 3,369 ? -6.4°
